Location: Bremen
(53.0793°N, 8.8017°E)
Time: 11:21:32
(UTC+02:00)

A-11 Canister half - Visible Passes

Search period start: 17 April 2024 00:00
Search period end: 27 April 2024 00:00
Orbit: 1526 x 1682 km, 47.3° (Epoch: 16 April)

Date Brightness Start Highest point End Pass type
(mag) Time Alt. Az. Time Alt. Az. Time Alt. Az.
17 Apr 11.4 05:45:48 10° SE 05:48:05 11° ESE 05:50:22 10° ESE visible
24 Apr 10.6 05:11:08 10° S 05:18:47 26° SE 05:26:32 10° E visible
25 Apr 10.6 04:49:39 10° S 04:57:07 25° SE 05:04:41 10° E visible
26 Apr 10.5 04:28:11 10° S 04:35:26 24° SE 04:42:49 10° E visible
